sat.trackr.live / text

‹ back to catalog

STARLINK-31768

NORAD 59616 · 2024-080R

PAYLOAD ACTIVE UNKNOWN

§ Identity

Operator
Country
US
Launch date
2024-04-28
Launch site
AFETR
Launch vehicle
Mass (kg)
RCS (m²)

Purposes: comms

External: N2YO · Heavens-Above · Gunter

§ Orbital elements

Epoch: 2026-05-24T19:31:17.000544Z

Period
94.27 min
Inclination
43.0036°
Eccentricity
0.0000965
Mean motion
15.27587512 rev/d
Perigee alt
482.4 km
Apogee alt
483.7 km
Semi-major
6,861.2 km
B*
5.0481e-5
RAAN
328.0991°
Arg perigee
233.8378°
Mean anomaly
126.2385°
Rev number
11,617

§ Raw data

STARLINK-317681 59616U 24080R   26144.81339121  .00001128  00000+0  50481-4 0  99992 59616  43.0036 328.0991 0000965 233.8378 126.2385 15.27587512116177

JSON: /api/v1/satellites/59616 · /tle

For live sub-satellite position, see the globe view (requires WebGL).

§ Visibility from observer

Set your observer location to see the next 7 days of passes ≥ 10°. The values pass through the URL so the page stays shareable.

No JS? Fill the form by hand. The geolocation button needs JavaScript.